Location: Axtheid
(49.6213°N, 11.8205°E)
Time: 18:25:03
(UTC+00:00)

Meteor PRIRODA - Pass Details

Date: 18 February 2020
Orbit: 490 x 512 km, 97.5° (Epoch: 30 March)

Event Time Altitude Azimuth Distance (km) Brightness Sun altitude
Rises 04:44:44 0° 8° (N) 2,626 7.4 -15.8°
Reaches altitude 10° 04:46:52 10° 3° (N) 1,732 6.4 -15.4°
Maximum altitude 04:50:28 49° 289° (WNW) 658 3.8 -14.8°
Drops below altitude 10° 04:54:02 10° 213° (SSW) 1,705 6.0 -14.3°
Enters shadow 04:55:00 - 210° (SSW) 2,105 6.5 -14.1°
